[[{"header":{"parameterUnit":"m.s-1","parameterCategory":1,"la1":30.2991,"la2":30.254,"lo1":-89.0895,"lo2":-89.0444,"dy":0.0017,"dx":0.0017,"nx":28,"ny":28,"refTime":"2023-09-09T09:00:00:Z","depth":0,"parameterNumber":2,"parameterNumberName":"U-component_of_WINDS"},"data":[0,0,0,0,0,0,0,0,0,0,0,0,0,0,0,0,0,0,0,0,0,0,0,0,0,0,0,0,0,0,0,0,0,0,0,0,0,0,0,0,0,0,0,0,0,0,0,0,0,0,0,0,0,0,0,0,0,0,-1.5981,-1.5982,0,-1.6147,-1.6149,-1.615,-1.6166,-1.6165,-1.6163,-1.6161,-1.6337,-1.6343,-1.6349,0,0,0,0,0,0,0,0,0,0,0,0,0,-1.5681,-1.5687,-1.598,-1.5982,-1.5985,-1.6146,-1.6149,-1.6151,-1.6167,-1.6165,-1.6162,-1.616,-1.6335,-1.6342,-1.635,0,0,0,0,0,0,0,0,0,0,0,0,0,-1.5826,-1.5689,-1.598,-1.6012,-1.6016,-1.6146,-1.6149,-1.6152,-1.6167,-1.6164,-1.6162,-1.6159,-1.6332,-1.6342,-1.6351,-1.6462,0,0,-1.638,-1.6384,0,0,0,0,0,0,0,0,-1.5818,-1.5837,-1.6005,-1.601,-1.6015,-1.6133,-1.6108,-1.6256,-1.6168,-1.611,-1.6161,-1.6158,-1.6272,-1.6286,-1.6323,-1.647,-1.6478,-1.6381,-1.6386,-1.639,-1.6393,0,0,0,0,0,0,0,-1.5808,-1.583,-1.6046,-1.6007,-1.6014,-1.6019,-1.6037,-1.6136,-1.6204,-1.6115,-1.6116,-1.6136,-1.6274,-1.6314,-1.6327,-1.648,-1.638,-1.6389,-1.6395,-1.6398,-1.6726,-1.6729,0,0,0,0,0,0,-1.5791,-1.5821,-1.6041,-1.6051,-1.5908,-1.6027,-1.6046,-1.6098,-1.6203,-1.6216,-1.6138,-1.6136,-1.6299,-1.6316,-1.6333,-1.6469,-1.639,-1.6399,-1.6405,-1.6723,-1.6727,-1.673,0,0,0,0,0,0,-1.5785,-1.581,-1.6034,-1.5937,-1.5966,-1.6035,-1.6092,-1.6103,-1.6142,-1.622,-1.6232,-1.6166,-1.6298,-1.632,-1.6429,-1.6476,-1.6404,-1.6412,-1.672,-1.6724,-1.6729,-1.6742,0,0,0,0,0,0,-1.5776,-1.5808,-1.585,-1.5938,-1.5971,-1.6126,-1.6095,-1.6108,-1.6158,-1.6157,-1.6249,-1.6262,-1.6297,-1.6415,-1.6439,-1.6487,-1.642,-1.6716,-1.6722,-1.6727,-1.6738,-1.6747,-1.6754,0,0,0,0,0,-1.5765,-1.5849,-1.5852,-1.5878,-1.6024,-1.6129,-1.6148,-1.6185,-1.6162,-1.6205,-1.6254,-1.6259,-1.6467,-1.6426,-1.6453,-1.6505,-1.6713,-1.672,-1.6727,-1.6734,-1.6745,-1.6754,0,0,0,0,0,0,-1.5767,-1.5861,-1.5865,-1.5979,-1.6045,-1.6131,-1.6186,-1.6195,-1.6271,-1.6267,-1.6311,-1.6332,-1.6439,-1.6484,-1.6436,-1.6618,-1.6588,-1.66,-1.6584,-1.6595,-1.6603,-1.659,-1.6427,0,0,0,0,0,-1.578,-1.5855,-1.5934,-1.6027,-1.606,-1.6117,-1.6164,-1.6187,-1.6258,-1.6287,-1.6344,-1.6415,-1.6496,-1.6548,-1.6627,-1.6745,-1.6765,-1.6794,-1.6802,-1.6808,-1.6818,-1.6883,-1.6896,-1.6753,-1.6752,-1.6752,0,0,-1.5808,-1.5869,-1.5914,-1.6029,-1.6082,-1.616,-1.6141,-1.6225,-1.6283,-1.63,-1.6405,-1.645,-1.6532,-1.6645,-1.6698,-1.6686,-1.6863,-1.6817,-1.6821,-1.6828,-1.6891,-1.6905,-1.6917,-1.6757,-1.6756,-1.6756,0,0,-1.59,-1.5954,-1.6036,-1.609,-1.6171,-1.6209,-1.6229,-1.6313,-1.6343,-1.6449,-1.6463,-1.6535,-1.6673,-1.673,-1.6778,-1.689,-1.6897,-1.6915,-1.6957,-1.7019,-1.7031,-1.7041,-1.708,-1.7093,-1.6925,-1.6925,-1.6925,0,-1.5926,-1.6042,-1.6078,-1.6161,-1.621,-1.6227,-1.6312,-1.6363,-1.6467,-1.6502,-1.6486,-1.6659,-1.6716,-1.6842,-1.6869,-1.6907,-1.6931,-1.6904,-1.7026,-1.7036,-1.7047,-1.7084,-1.7099,-1.6926,-1.6926,-1.6926,-1.6926,0,-1.6069,-1.6149,-1.6207,-1.6303,-1.636,-1.6444,-1.6493,-1.6547,-1.6565,-1.6604,-1.6712,-1.6781,-1.6873,-1.6905,-1.6924,-1.7034,-1.7023,-1.7016,-1.6987,-1.7061,-1.7097,-1.7112,-1.6929,-1.6928,-1.6928,-1.6927,0,0,-1.6166,-1.628,-1.6301,-1.6344,-1.6435,-1.6499,-1.6583,-1.6672,-1.6716,-1.6788,-1.6859,-1.6976,-1.6969,-1.7023,-1.7049,-1.7104,-1.7187,-1.709,-1.7093,-1.7104,-1.7311,-1.7315,-1.7331,-1.7193,-1.7196,-1.7198,-1.7304,0,-1.6266,-1.6414,-1.6449,-1.6576,-1.6651,-1.6668,-1.6742,-1.6806,-1.6846,-1.6916,-1.6961,-1.7042,-1.7028,-1.706,-1.7115,-1.7165,-1.7229,-1.7158,-1.726,-1.7264,-1.7237,-1.735,-1.7355,-1.7451,-1.7319,-1.7321,-1.7323,0,-1.6403,-1.6474,-1.6608,-1.6688,-1.6721,-1.6786,-1.6869,-1.6936,-1.701,-1.7035,-1.7094,-1.7114,-1.7204,-1.7171,-1.7295,-1.7246,-1.729,-1.7321,-1.7326,-1.7335,-1.7296,-1.7362,-1.7483,-1.7497,-1.7346,-1.7344,-1.7342,0,-1.6458,-1.6588,-1.6685,-1.6722,-1.6818,-1.6863,-1.6906,-1.6976,-1.7027,-1.7101,-1.7134,-1.7218,-1.7264,-1.7329,-1.7372,-1.7344,-1.7492,-1.7463,-1.7516,-1.7514,-1.7545,-1.7542,-1.7673,-1.7576,-1.7576,-1.7575,-1.7575,0,-1.6566,-1.6647,-1.671,-1.677,-1.6861,-1.6902,-1.6992,-1.7035,-1.7098,-1.7166,-1.7188,-1.7253,-1.7306,-1.7378,-1.7413,-1.7509,-1.7531,-1.7554,-1.7562,-1.7551,-1.7548,-1.7579,-1.7573,-1.7579,-1.7579,-1.7578,-1.7577,0,-1.6642,-1.6688,-1.6794,-1.6875,-1.6898,-1.6962,-1.7032,-1.7091,-1.7131,-1.7218,-1.7241,-1.7304,-1.739,-1.7439,-1.7549,-1.7572,-1.7679,-1.7685,-1.7653,-1.7657,-1.7706,-1.77,-1.7861,-1.7884,-1.7772,-1.7773,-1.7774,0,-1.6706,-1.6769,-1.6856,-1.6903,-1.6945,-1.7021,-1.7071,-1.7114,-1.7167,-1.7255,-1.7303,-1.739,-1.7461,-1.7598,-1.7655,-1.7739,-1.7746,-1.7797,-1.7759,-1.7745,-1.7745,-1.774,-1.7746,-1.7802,-1.7803,-1.7804,-1.7805,0,-1.6816,-1.6835,-1.6907,-1.6987,-1.7046,-1.7112,-1.7177,-1.7214,-1.7268,-1.7326,-1.7413,-1.7468,-1.7578,-1.7664,-1.7752,-1.7798,-1.7811,-1.7817,-1.7833,-1.7822,-1.78,-1.7811,-1.7669,-1.7812,-1.7812,-1.7811,-1.7811,-1.781,-1.6888,-1.6943,-1.7013,-1.7092,-1.7145,-1.7205,-1.7263,-1.731,-1.7382,-1.7474,-1.7495,-1.7587,-1.7659,-1.7778,-1.7826,-1.7899,-1.789,-1.7914,-1.792,-1.7925,-1.7925,-1.7789,-1.7916,-1.7916,-1.7915,-1.7915,-1.7915,0,-1.6997,-1.7042,-1.7114,-1.7203,-1.7265,-1.727,-1.7342,-1.7394,-1.7474,-1.7539,-1.7609,-1.7708,-1.7792,-1.7855,-1.794,-1.7987,-1.7995,-1.8008,-1.8004,-1.8014,-1.7929,-1.7906,-1.8,-1.8,-1.8,-1.8,-1.8,-1.8,-1.7061,-1.7154,-1.7182,-1.7302,-1.7348,-1.7436,-1.7476,-1.7532,-1.7584,-1.7694,-1.7762,-1.7802,-1.7867,-1.7957,-1.8034,-1.8051,-1.8081,-1.8093,-1.811,-1.8029,-1.802,-1.8011,-1.7989,-1.8099,-1.8099,-1.8188,-1.8189,-1.819]},{"header":{"parameterUnit":"m.s-1","parameterCategory":1,"la1":30.2991,"la2":30.254,"lo1":-89.0895,"lo2":-89.0444,"dy":0.0017,"dx":0.0017,"nx":28,"ny":28,"refTime":"2023-09-09T09:00:00:Z","depth":0,"parameterNumber":3,"parameterNumberName":"V-component_of_WINDS"},"data":[0,0,0,0,0,0,0,0,0,0,0,0,0,0,0,0,0,0,0,0,0,0,0,0,0,0,0,0,0,0,0,0,0,0,0,0,0,0,0,0,0,0,0,0,0,0,0,0,0,0,0,0,0,0,0,0,0,0,-2.8927,-2.8927,0,-2.8932,-2.8932,-2.8932,-2.8882,-2.888,-2.8879,-2.8877,-2.8881,-2.8882,-2.8883,0,0,0,0,0,0,0,0,0,0,0,0,0,-2.8872,-2.8873,-2.8927,-2.8927,-2.8927,-2.8932,-2.8932,-2.8932,-2.8882,-2.888,-2.8878,-2.8877,-2.888,-2.8882,-2.8883,0,0,0,0,0,0,0,0,0,0,0,0,0,-2.8888,-2.8874,-2.8927,-2.8902,-2.89,-2.8932,-2.8932,-2.8932,-2.8882,-2.888,-2.8878,-2.8876,-2.888,-2.8882,-2.8884,-2.8938,0,0,-2.889,-2.8891,0,0,0,0,0,0,0,0,-2.8887,-2.889,-2.8906,-2.8904,-2.8902,-2.8904,-2.8914,-2.8934,-2.8883,-2.8889,-2.8877,-2.8875,-2.889,-2.8891,-2.8896,-2.8938,-2.8938,-2.889,-2.8891,-2.8892,-2.8893,0,0,0,0,0,0,0,-2.8886,-2.889,-2.8929,-2.8906,-2.8904,-2.8891,-2.8891,-2.8917,-2.8901,-2.8888,-2.8885,-2.8886,-2.8888,-2.8895,-2.8896,-2.8938,-2.889,-2.8892,-2.8893,-2.8894,-2.9024,-2.9026,0,0,0,0,0,0,-2.8889,-2.8889,-2.8928,-2.8929,-2.8889,-2.8893,-2.8893,-2.8905,-2.8901,-2.8898,-2.8888,-2.8884,-2.8892,-2.8894,-2.8896,-2.8958,-2.8892,-2.8894,-2.8895,-2.9022,-2.9024,-2.9027,0,0,0,0,0,0,-2.8888,-2.8893,-2.8928,-2.8908,-2.8912,-2.8897,-2.891,-2.8907,-2.8913,-2.89,-2.8897,-2.8897,-2.889,-2.8893,-2.8928,-2.8958,-2.8895,-2.8897,-2.9019,-2.9023,-2.9026,-2.9084,0,0,0,0,0,0,-2.8886,-2.8893,-2.8913,-2.8909,-2.8913,-2.8961,-2.8912,-2.8908,-2.8917,-2.8911,-2.8908,-2.8906,-2.8889,-2.8925,-2.893,-2.896,-2.8899,-2.9016,-2.9021,-2.9025,-2.908,-2.9089,-2.9097,0,0,0,0,0,-2.8885,-2.8929,-2.8915,-2.892,-2.8939,-2.8962,-2.8965,-2.8945,-2.8919,-2.894,-2.8932,-2.8906,-2.8954,-2.8929,-2.8934,-2.8965,-2.9014,-2.9019,-2.9024,-2.9075,-2.9087,-2.9097,0,0,0,0,0,0,-2.8937,-2.8928,-2.8912,-2.8957,-2.8961,-2.8954,-2.8979,-2.8958,-2.8969,-2.8964,-2.8939,-2.8939,-2.8977,-2.8975,-2.8947,-2.9017,-2.898,-2.8986,-2.9017,-2.9028,-2.9037,-2.9036,-2.89,0,0,0,0,0,-2.8954,-2.8974,-2.8966,-2.9006,-2.9009,-2.8994,-2.9003,-2.8988,-2.8991,-2.8993,-2.8987,-2.899,-2.9006,-2.9017,-2.9031,-2.908,-2.9078,-2.9103,-2.9112,-2.912,-2.9125,-2.9149,-2.916,-2.9043,-2.9043,-2.9043,0,0,-2.8988,-2.8986,-2.9,-2.9016,-2.9018,-2.9039,-2.8995,-2.902,-2.9035,-2.8996,-2.9028,-2.9025,-2.9027,-2.9069,-2.9087,-2.9067,-2.9157,-2.9126,-2.9132,-2.9133,-2.9156,-2.9167,-2.9177,-2.9047,-2.9046,-2.9046,0,0,-2.9062,-2.9063,-2.9096,-2.9099,-2.9102,-2.9092,-2.91,-2.9097,-2.9093,-2.9125,-2.9096,-2.9114,-2.9142,-2.9145,-2.915,-2.9226,-2.9202,-2.9231,-2.9277,-2.9302,-2.9311,-2.9319,-2.9345,-2.9355,-2.9237,-2.9237,-2.9237,0,-2.9104,-2.9135,-2.9116,-2.9142,-2.915,-2.9117,-2.915,-2.9153,-2.9161,-2.9166,-2.9145,-2.918,-2.9179,-2.922,-2.9239,-2.9245,-2.9253,-2.9231,-2.9311,-2.9319,-2.9326,-2.9351,-2.9361,-2.924,-2.924,-2.924,-2.9239,0,-2.9187,-2.9209,-2.9236,-2.9244,-2.9255,-2.9285,-2.9269,-2.9282,-2.9267,-2.9259,-2.9292,-2.929,-2.9303,-2.9312,-2.9297,-2.9352,-2.934,-2.9316,-2.9277,-2.9341,-2.9364,-2.9373,-2.9245,-2.9244,-2.9243,-2.9242,0,0,-2.9291,-2.929,-2.93,-2.9303,-2.9305,-2.9321,-2.935,-2.9363,-2.9375,-2.9381,-2.9404,-2.9429,-2.9407,-2.9413,-2.9398,-2.9419,-2.9479,-2.9392,-2.9392,-2.9407,-2.9538,-2.9555,-2.9566,-2.9464,-2.9466,-2.9467,-2.9537,0,-2.9361,-2.941,-2.9394,-2.9443,-2.9463,-2.9433,-2.9457,-2.9461,-2.9455,-2.947,-2.9463,-2.9481,-2.9451,-2.9454,-2.9475,-2.9467,-2.9504,-2.9462,-2.9483,-2.9484,-2.9482,-2.9578,-2.9596,-2.9662,-2.9546,-2.9547,-2.9549,0,-2.945,-2.9461,-2.9512,-2.9511,-2.9519,-2.9541,-2.9552,-2.9568,-2.9571,-2.9565,-2.9573,-2.9553,-2.958,-2.9544,-2.9581,-2.9552,-2.956,-2.9558,-2.956,-2.956,-2.9519,-2.9579,-2.9683,-2.9692,-2.9562,-2.9561,-2.956,0,-2.9519,-2.9547,-2.9581,-2.9585,-2.9585,-2.9601,-2.9602,-2.9603,-2.9613,-2.9622,-2.9628,-2.9641,-2.9647,-2.9658,-2.9642,-2.9617,-2.9681,-2.9643,-2.9675,-2.9676,-2.9688,-2.9687,-2.9793,-2.9697,-2.9696,-2.9696,-2.9696,0,-2.9598,-2.963,-2.9612,-2.9633,-2.9668,-2.965,-2.9685,-2.9682,-2.9684,-2.9703,-2.9678,-2.9697,-2.9676,-2.9692,-2.9681,-2.9712,-2.9716,-2.9711,-2.9707,-2.9712,-2.9712,-2.9715,-2.971,-2.9699,-2.9698,-2.9698,-2.9697,0,-2.968,-2.967,-2.9705,-2.9702,-2.9702,-2.9728,-2.9726,-2.9744,-2.9737,-2.9762,-2.9767,-2.9755,-2.9773,-2.976,-2.9777,-2.9769,-2.9811,-2.9801,-2.981,-2.9806,-2.9839,-2.9836,-2.9949,-2.9963,-2.9859,-2.986,-2.9861,0,-2.973,-2.9755,-2.9755,-2.9767,-2.9769,-2.9788,-2.9798,-2.9781,-2.9792,-2.9798,-2.9816,-2.9833,-2.9845,-2.9875,-2.9868,-2.9881,-2.9871,-2.991,-2.9873,-2.9877,-2.987,-2.9868,-2.9869,-2.9917,-2.9918,-2.9919,-2.992,0,-2.982,-2.9814,-2.9829,-2.9843,-2.9856,-2.9866,-2.9874,-2.9884,-2.9867,-2.9881,-2.99,-2.9909,-2.9928,-2.9944,-2.9956,-2.9955,-2.9934,-2.9932,-2.994,-2.9944,-2.9948,-2.9945,-2.9828,-2.9929,-2.9928,-2.9927,-2.9927,-2.9926,-2.9887,-2.9907,-2.991,-2.9928,-2.9933,-2.9941,-2.9959,-2.9955,-2.997,-2.9985,-2.9974,-2.9996,-2.9999,-3.0012,-3.0015,-3.0032,-3.0015,-3.0027,-3.003,-3.0033,-3.0037,-2.9947,-3.0034,-3.0034,-3.0033,-3.0033,-3.0033,0,-2.9974,-2.9975,-2.9992,-3.0004,-3.0019,-3.0,-3.0008,-3.0021,-3.0041,-3.0046,-3.0059,-3.0081,-3.0097,-3.0091,-3.0105,-3.012,-3.0111,-3.0124,-3.0122,-3.0122,-3.0051,-3.0042,-3.0131,-3.0131,-3.0131,-3.0131,-3.0131,-3.0131,-3.002,-3.0053,-3.0048,-3.0083,-3.0084,-3.0106,-3.0112,-3.0119,-3.0123,-3.0149,-3.0163,-3.016,-3.0161,-3.0175,-3.0189,-3.0187,-3.0192,-3.0209,-3.0203,-3.0136,-3.0127,-3.0117,-3.0109,-3.021,-3.0211,-3.0272,-3.0273,-3.0273]}]]